Wind_Speed
15 16 17 18 19 20 21 22 22 23 24 25 25 25 26 27 27 27 27 27 27 27 27 27 27 27 27 27 26 26 26 25 24 24 24 24 24 25 25 26 27 28 29 30 31 32 32 32 32 32 32 33 33 33 33 33 33 33 33 34 34 34 34 34 34 34 33 33 34 34 34 34 34 34 34 34 34 34 34 34 34 34 34 34 34 34
15 16 17 17 18 19 21 22 22 22 23 25 26 27 27 28 28 28 27 26 26 26 26 26 27 27 27 27 27 26 26 25 25 24 24 24 24 25 25 26 27 28 30 32 33 33 33 33 33 33 33 33 33 33 33 33 34 34 34 34 34 34 34 34 34 34 34 34 34 34 34 34 34 34 34 34 35 35 35 35 34 34 34 34 34 34
16 16 17 17 17 18 20 21 22 21 22 24 26 27 27 28 28 28 27 26 26 25 25 26 26 27 27 27 27 27 26 25 25 24 24 24 24 25 25 26 28 29 31 33 34 34 34 34 34 34 34 34 34 34 34 34 34 34 34 34 34 34 34 34 34 34 34 34 34 34 34 34 35 35 35 35 35 35 35 34 34 34 34 34 34 34
15 16 17 17 18 18 19 20 21 22 23 25 26 27 26 26 27 26 26 26 26 26 26 26 26 27 27 27 27 27 26 25 25 24 24 24 24 25 26 27 28 30 32 33 34 34 35 35 34 34 34 34 34 34 34 35 35 35 35 35 35 35 34 34 34 34 34 35 35 35 35 35 35 35 35 35 35 35 34 34 34 34 34 34 34 34
15 15 16 17 17 18 19 19 21 22 24 25 25 25 25 25 25 25 25 25 25 26 26 26 26 27 27 27 27 26 25 24 24 24 24 24 25 26 27 28 29 30 32 33 33 34 34 34 34 34 34 35 35 35 35 35 36 36 36 36 35 35 35 35 35 35 35 36 36 36 36 35 35 35 35 34 34 34 34 34 33 33 33 33 34 34
16 16 16 16 17 18 19 20 22 23 24 25 24 24 24 24 24 24 24 25 25 25 26 26 26 26 26 26 25 24 24 23 23 24 24 25 26 27 28 28 29 30 31 32 32 33 33 34 34 34 34 35 35 36 36 37 37 37 37 37 36 36 36 36 36 36 36 36 36 35 35 35 35 34 34 34 34 34 34 34 34 34 34 34 34 34
17 16 16 16 17 19 20 21 22 22 23 23 24 24 23 23 23 23 23 24 24 25 26 26 25 25 24 23 23 23 23 24 24 25 26 27 27 28 28 29 29 30 30 31 32 32 32 33 33 34 34 35 36 37 37 38 38 38 38 37 37 37 37 37 36 36 36 36 35 35 35 34 34 34 34 34 34 34 34 34 34 34 35 35 35 35
18 18 18 17 18 20 21 22 21 21 21 21 22 23 23 23 22 23 23 23 24 24 24 25 24 23 22 22 22 23 24 25 26 26 27 27 27 28 28 29 29 29 30 30 30 31 31 31 32 33 34 35 36 37 38 38 38 38 38 38 37 37 37 37 36 36 36 35 35 35 34 34 34 34 34 34 35 35 35 35 35 35 35 35 35 35
20 19 19 19 19 20 21 22 21 20 19 19 20 21 22 23 23 24 23 23 22 22 22 22 23 23 23 23 24 24 25 25 25 26 26 26 27 27 28 28 29 29 29 29 29 29 30 31 32 33 35 36 37 38 38 38 38 38 38 38 37 37 36 36 36 35 35 35 35 34 34 34 35 35 35 36 36 36 36 35 35 36 36 36 36 35
20 19 19 20 19 19 20 21 21 19 17 18 19 20 21 22 23 24 24 23 22 21 21 21 23 25 25 25 25 24 25 25 25 25 25 25 26 27 27 28 28 28 28 28 28 28 30 31 33 34 35 36 36 37 37 37 37 37 37 37 36 36 36 35 35 35 35 35 35 35 35 35 36 36 36 37 36 36 36 36 36 36 36 36 36 36
18 18 18 19 19 18 18 18 18 18 17 18 19 20 20 20 20 21 22 23 24 23 23 23 23 24 25 25 25 24 24 25 25 25 25 25 25 26 26 27 27 27 27 27 28 29 30 32 33 34 35 35 35 35 35 36 36 36 36 36 35 35 35 35 35 34 34 35 35 35 36 37 37 37 37 37 37 37 36 36 36 36 36 36 36 36
17 17 16 16 16 16 15 16 16 16 17 17 18 19 19 18 18 19 21 23 24 25 25 25 24 23 23 24 24 24 24 24 25 25 25 25 25 25 25 26 27 27 28 28 29 30 31 32 33 33 34 34 34 34 34 34 34 34 34 34 34 34 34 34 34 34 35 35 36 36 37 37 37 37 37 37 37 37 37 37 37 37 37 37 37 37
17 16 15 15 15 15 15 15 16 16 16 16 17 17 18 19 20 20 21 23 25 25 25 25 25 24 23 22 22 22 23 24 24 24 24 24 24 24 25 26 27 28 28 29 30 31 32 32 33 33 33 33 33 33 33 33 33 33 33 33 33 33 34 34 34 34 35 35 36 37 37 37 37 37 37 38 38 38 38 38 37 37 37 37 37 37
16 15 15 15 15 15 15 15 15 16 16 16 17 18 19 21 22 22 23 24 25 25 24 24 24 24 22 21 20 20 21 22 23 24 24 24 24 24 25 26 28 28 29 30 31 31 31 31 32 32 32 32 32 32 32 32 32 32 32 32 33 33 34 34 34 35 35 36 36 37 37 37 37 37 38 38 38 38 38 38 38 37 37 37 37 37
15 14 14 15 15 15 15 15 16 16 17 18 19 20 21 22 22 22 22 23 24 24 23 23 24 23 21 19 18 18 19 21 23 24 26 26 25 24 24 26 28 29 30 30 31 31 31 31 31 32 32 32 32 32 32 32 31 32 32 33 33 34 34 34 34 35 35 36 36 37 37 37 37 38 38 38 38 38 38 37 37 37 37 37 38 38
15 14 14 14 15 15 15 15 16 17 18 19 20 20 21 21 22 21 21 22 22 22 21 21 22 22 21 19 17 16 18 21 23 25 27 28 27 24 23 25 28 30 30 31 31 31 31 30 30 31 31 32 32 32 31 31 31 32 32 33 33 34 34 34 35 35 36 36 36 37 37 37 37 37 37 37 37 37 37 37 37 37 38 38 38 38
14 14 14 15 15 16 17 16 17 17 19 19 20 20 20 20 21 21 20 20 20 20 19 18 17 16 17 20 19 17 19 22 24 25 26 27 27 25 24 26 29 31 31 31 31 30 30 30 30 31 31 31 31 31 31 31 32 32 33 33 34 34 34 34 35 35 36 36 37 37 37 37 37 37 37 36 36 36 36 36 36 36 37 37 37 37
14 14 14 15 16 17 17 17 17 18 19 19 20 20 20 20 20 20 19 19 19 18 18 18 16 14 15 18 20 21 21 23 25 25 25 26 27 27 27 27 29 30 30 30 30 30 30 30 30 31 31 31 31 31 31 31 32 32 33 33 33 34 34 35 35 36 36 36 36 36 36 36 36 36 36 36 35 35 36 36 36 36 36 36 36 37
15 15 15 16 17 18 18 18 18 18 18 19 19 20 20 20 20 19 19 18 18 18 18 18 17 18 18 21 23 25 24 24 24 23 23 26 28 30 29 28 28 29 30 30 30 30 30 30 31 31 31 31 31 31 31 31 32 32 33 33 34 34 34 35 35 36 36 36 36 36 35 35 35 35 35 35 35 35 36 36 36 37 37 37 37 37
17 17 17 17 18 18 19 19 18 18 18 18 19 20 20 21 20 19 19 18 18 17 18 18 19 20 21 23 26 27 26 24 23 22 23 27 30 31 29 28 28 29 30 30 30 30 30 31 31 31 31 31 30 30 30 31 32 32 33 33 34 34 35 35 35 35 35 35 35 34 34 34 34 34 35 35 36 36 36 37 37 37 36 36 36 36
19 20 20 19 18 18 19 19 19 19 19 20 20 20 20 20 19 18 18 17 18 18 18 19 21 22 23 24 26 27 27 23 20 21 24 28 31 31 30 28 27 28 30 31 31 31 30 31 31 31 30 30 30 30 30 31 32 32 33 33 34 34 35 35 35 34 34 34 33 33 33 34 34 35 35 36 36 36 36 36 36 35 35 35 35 35
20 21 21 21 20 20 21 22 22 22 22 21 21 20 20 19 18 18 18 18 19 20 20 22 24 26 27 28 28 27 24 19 19 22 25 27 30 32 30 28 28 29 30 32 32 32 31 31 31 31 30 30 29 30 30 31 32 32 33 33 34 34 34 34 33 33 32 32 32 33 34 34 35 35 36 36 35 35 35 35 35 35 35 35 35 35
23 23 23 23 23 24 24 25 25 25 24 22 22 21 20 19 18 19 20 20 22 23 25 27 29 29 29 27 25 22 19 19 21 23 23 23 27 31 30 29 28 29 30 32 32 32 31 30 30 30 29 29 29 29 30 31 32 33 33 33 33 33 32 32 31 31 31 32 33 34 34 35 35 35 35 35 34 34 34 34 34 34 34 34 34 35
22 23 23 23 24 24 25 25 25 25 23 22 21 21 20 20 21 22 23 24 26 28 29 30 28 25 22 19 18 19 20 22 23 23 22 22 26 29 30 29 29 30 31 31 31 31 30 30 30 29 29 29 29 30 31 32 32 32 32 32 31 31 30 30 31 31 32 33 34 34 34 34 34 34 34 34 34 34 34 34 34 34 34 34 34 34
20 21 21 22 22 22 23 23 23 22 21 21 21 21 21 22 23 25 26 27 28 28 26 23 20 17 18 19 21 23 24 23 22 21 21 22 26 29 29 28 27 28 30 31 31 30 30 30 30 29 29 30 30 31 31 31 31 31 30 30 30 29 30 30 31 32 32 33 33 34 33 33 33 33 33 33 33 33 34 34 34 34 34 34 34 34
18 19 20 20 20 20 20 21 21 20 20 20 21 22 24 24 25 25 25 24 22 20 17 15 15 18 21 24 25 26 25 24 22 20 20 21 25 28 28 27 26 27 30 31 31 30 29 30 30 30 30 30 30 30 30 29 29 29 28 29 29 29 30 31 31 31 32 32 32 32 32 32 32 32 33 33 33 33 33 33 33 34 34 34 34 33
17 18 18 19 19 19 20 21 21 21 21 21 22 23 24 24 24 22 19 18 17 16 15 15 17 20 23 23 24 26 26 24 22 21 21 21 23 25 26 26 25 26 29 31 31 30 29 30 30 30 30 29 29 29 28 27 27 28 28 29 29 30 30 30 30 31 31 31 31 32 32 32 32 32 32 32 33 33 33 33 33 33 33 33 32 30
17 18 18 18 19 19 20 20 20 20 20 20 21 21 21 22 22 20 17 17 17 17 17 17 17 18 20 22 25 27 27 25 23 21 20 20 20 22 25 26 26 26 28 30 31 31 30 29 28 28 28 28 27 27 27 27 27 28 29 29 29 29 29 29 29 30 30 31 31 31 31 31 31 31 32 32 32 32 32 32 33 33 32 31 29 29
17 17 17 17 18 18 19 19 20 20 19 19 19 19 18 19 20 20 18 18 19 19 19 20 19 20 21 24 26 27 26 24 21 19 19 18 19 22 25 26 26 26 26 28 31 32 30 27 25 24 25 26 27 27 27 28 29 29 30 29 29 28 28 28 29 29 30 30 30 30 30 30 31 31 31 31 32 32 31 32 32 31 30 29 28 28
15 16 16 17 17 18 18 19 20 20 21 20 19 18 17 18 19 19 20 20 20 20 20 21 21 21 22 22 22 21 21 21 19 18 19 19 20 23 26 26 25 24 23 22 22 22 25 26 24 22 23 25 27 28 29 29 29 29 29 29 28 28 27 28 28 29 30 30 30 30 30 30 31 31 31 31 31 31 31 31 31 30 29 28 28 28
15 16 17 17 18 18 19 20 21 22 22 21 19 17 16 16 17 18 19 20 21 21 22 22 22 21 20 18 13 10 13 20 22 20 20 20 22 24 25 25 24 23 20 17 12 10 14 22 26 26 24 26 28 29 29 29 28 28 28 28 28 28 28 28 29 29 29 29 30 30 30 30 30 30 30 30 30 30 30 30 30 29 28 28 28 28
16 17 18 18 19 19 20 21 21 21 20 19 17 16 15 16 17 18 20 20 21 22 22 22 21 21 20 18 15 13 17 23 25 23 22 21 22 24 24 23 23 23 21 18 16 12 9 14 24 30 29 29 29 29 29 28 27 27 27 27 28 28 29 28 29 29 29 30 30 30 30 30 30 30 29 29 29 29 29 30 29 29 28 28 28 28
16 17 17 18 19 20 20 20 20 18 17 15 15 15 16 17 18 19 19 20 20 20 20 20 20 20 20 21 22 23 26 27 26 24 21 20 21 22 23 23 23 24 23 21 20 19 15 18 24 29 31 30 29 29 28 28 27 26 26 27 28 29 29 29 29 29 30 30 30 30 30 30 29 29 29 29 29 29 29 29 29 29 29 28 28 28
16 16 17 19 20 20 20 18 17 15 15 15 16 17 17 18 18 18 18 18 18 18 19 19 19 19 20 21 23 25 27 27 26 23 20 20 20 21 23 23 23 23 23 22 21 21 21 23 25 25 27 29 30 29 28 27 26 26 26 27 27 28 29 29 29 29 30 30 30 30 30 30 30 29 29 29 29 29 29 30 30 30 29 28 27 28
16 17 19 20 20 18 17 15 14 14 15 16 16 17 17 17 17 18 18 18 19 19 19 20 20 20 20 21 23 25 27 28 26 24 21 21 21 22 23 24 23 23 21 22 21 20 20 23 24 24 24 26 29 29 28 26 26 26 27 27 27 28 28 28 28 29 29 30 30 30 30 30 30 30 30 29 29 29 30 30 30 30 29 28 27 27
17 18 19 18 17 15 14 14 14 15 16 16 16 16 16 17 18 19 19 20 20 21 21 22 22 23 23 23 24 27 29 30 29 27 24 23 23 23 23 24 24 22 21 21 21 20 19 21 24 25 24 24 25 27 28 27 27 27 27 27 27 27 27 27 27 28 28 29 29 30 30 30 30 30 30 30 30 30 30 30 30 29 28 28 28 27
18 19 18 16 14 13 13 14 15 15 16 16 16 16 17 18 19 20 21 21 22 22 23 24 25 26 26 27 27 29 31 31 30 29 27 26 26 25 24 24 24 23 20 21 21 20 20 20 22 23 23 22 22 23 26 28 29 29 28 28 28 28 28 27 26 26 27 28 28 29 30 29 29 30 30 30 30 30 30 29 29 28 29 29 29 28
17 16 15 13 12 13 14 14 15 15 16 17 17 18 19 20 20 21 22 22 23 24 25 26 27 27 28 28 28 29 30 31 31 30 29 28 26 25 25 24 24 23 21 21 21 21 21 19 18 17 19 21 23 25 26 28 28 29 30 30 30 28 27 26 26 26 26 27 28 29 29 29 29 29 30 30 30 30 30 30 30 30 30 30 30 29
14 13 12 12 12 13 14 15 16 17 17 18 19 19 20 21 21 22 22 23 24 24 25 25 26 26 26 26 26 27 27 27 28 28 28 28 27 26 25 25 24 24 23 22 22 22 21 20 18 17 17 20 24 26 28 27 27 28 30 31 31 29 27 25 25 26 27 27 28 29 29 29 29 29 29 29 29 29 29 30 31 31 32 32 32 31
12 12 12 13 14 15 15 17 17 18 18 19 19 20 21 21 22 22 22 22 23 23 23 23 23 24 24 24 25 25 26 27 27 27 27 28 27 27 26 25 24 24 23 23 22 21 21 21 22 22 22 22 23 25 27 27 28 28 29 28 28 29 28 28 27 27 27 27 27 28 29 29 29 28 28 28 28 28 29 30 31 31 31 31 30 30
13 14 15 15 16 17 17 18 18 18 19 19 20 20 21 21 21 21 21 21 21 20 20 21 22 22 23 24 24 25 25 25 25 26 26 26 26 26 26 26 25 24 23 23 23 22 22 22 23 24 24 24 25 26 28 28 28 28 27 25 27 29 31 30 28 27 26 26 26 27 28 28 28 28 28 28 28 28 29 29 30 30 30 29 27 27
15 16 17 17 17 17 17 18 18 18 19 19 19 19 19 19 18 18 19 19 20 20 20 20 21 22 23 24 24 23 22 22 23 23 23 24 24 24 25 25 25 25 24 23 23 23 23 23 23 23 24 24 24 25 26 29 29 28 26 25 27 29 30 29 27 25 25 26 27 27 27 28 28 28 28 29 30 30 30 29 29 28 28 27 26 26
17 18 18 18 18 18 18 18 18 18 18 18 18 18 17 17 16 17 17 18 19 19 19 19 20 21 22 23 23 23 22 21 21 21 21 21 22 22 23 24 24 24 24 23 23 23 23 23 22 23 23 23 24 25 26 28 29 28 26 25 25 24 23 26 27 27 27 27 27 27 27 27 28 28 29 30 31 31 30 29 28 27 26 26 26 26
18 18 19 18 18 18 18 17 17 17 17 16 16 16 16 16 16 16 17 18 19 19 19 19 20 21 21 22 23 23 23 22 21 20 19 19 19 20 20 21 22 22 22 22 22 21 22 22 23 23 23 24 24 24 26 27 27 27 27 26 25 24 23 25 28 29 29 29 28 27 27 27 28 30 31 31 31 30 29 28 28 27 26 25 25 25
18 18 18 17 17 16 16 16 16 16 16 16 16 16 16 16 16 16 17 18 19 19 19 19 19 19 20 21 22 22 22 22 21 20 19 18 17 18 18 19 20 21 21 21 21 21 21 22 23 24 24 24 23 24 25 26 26 27 27 27 25 25 26 27 27 27 27 28 28 28 27 28 29 30 31 31 30 29 28 27 26 26 26 26 25 25
17 17 17 16 15 15 15 15 15 16 16 16 16 16 16 16 16 16 17 18 18 19 19 19 18 18 19 20 21 22 22 22 22 20 19 18 17 17 17 18 19 20 21 21 22 23 23 23 23 24 24 24 24 25 25 25 25 25 26 27 26 26 26 27 26 26 26 26 27 27 28 29 29 30 30 30 29 28 27 25 25 25 26 26 25 25
16 16 15 15 14 15 15 16 16 16 16 15 15 16 16 16 16 17 17 18 18 18 18 18 18 18 19 20 21 21 21 22 22 21 20 19 18 18 18 18 19 19 20 21 22 23 24 24 25 24 24 23 24 25 26 25 24 25 26 26 26 26 26 27 26 26 25 25 25 26 28 29 29 29 28 28 28 27 26 25 25 25 25 25 25 25
14 14 14 14 15 15 16 16 15 15 15 15 16 16 16 16 16 16 17 17 17 17 17 17 18 18 19 20 20 20 20 21 21 21 20 20 19 19 18 18 19 19 20 20 21 22 23 24 25 25 25 25 24 25 26 26 25 25 25 26 26 26 26 27 27 26 25 25 25 26 28 28 27 26 27 27 27 26 26 26 26 26 25 24 24 24
13 14 15 15 15 15 15 15 15 15 15 15 16 16 17 17 16 16 16 17 17 17 17 17 18 19 19 20 20 20 20 20 21 21 20 19 19 18 18 18 19 19 20 20 20 21 22 23 23 24 25 25 26 26 27 26 26 25 25 25 24 24 25 26 26 26 25 25 26 28 28 27 25 24 23 24 24 26 27 27 27 26 25 24 24 24
15 15 16 16 15 15 15 14 14 14 15 15 16 17 17 17 17 17 17 17 17 17 17 17 18 19 19 20 20 20 20 20 20 20 20 19 18 18 18 18 19 19 19 19 19 19 19 19 19 19 20 21 23 24 25 25 25 25 24 24 23 23 23 24 25 26 26 26 27 28 28 27 24 22 20 21 23 25 27 28 27 27 26 25 24 24
16 16 16 15 15 15 15 14 14 14 15 16 16 17 17 17 17 17 16 16 17 17 18 18 18 18 19 20 20 20 19 19 19 19 19 19 18 17 18 18 18 18 18 17 17 17 16 15 15 15 17 16 16 17 20 22 22 23 23 23 23 22 22 23 25 26 27 27 27 27 26 24 22 20 19 20 21 24 25 27 28 28 27 27 26 25
Wind_Direction
277 282 285 288 291 294 296 298 301 304 306 308 308 309 309 309 308 308 308 308 308 308 308 308 308 308 308 308 308 307 306 305 304 303 302 302 303 304 304 306 307 308 308 309 309 309 309 309 309 309 309 308 308 307 307 306 306 306 305 304 304 303 302 302 302 301 301 301 300 300 300 300 300 300 300 300 300 300 300 300 299 299 298 298 297 296
278 282 286 289 292 294 295 299 302 304 305 306 307 308 309 308 308 308 309 309 309 309 309 309 309 308 308 308 308 308 307 306 304 303 303 303 303 304 305 306 307 308 308 309 309 309 309 309 309 308 308 307 307 306 306 306 305 305 304 304 303 302 302 302 301 301 301 301 300 300 300 300 300 300 301 301 300 300 300 300 299 299 298 298 297 297
280 283 286 288 290 292 294 299 302 304 304 304 306 307 307 307 307 307 308 309 310 310 309 309 308 308 308 308 308 307 307 306 305 304 304 303 303 304 305 306 307 307 308 308 308 308 308 308 308 308 307 307 306 306 306 305 305 305 304 304 303 303 302 302 301 301 301 301 301 301 301 301 301 301 301 301 300 300 300 300 299 299 299 298 298 298
277 281 284 288 290 291 293 297 300 302 302 303 304 305 306 305 305 306 307 308 308 309 308 308 308 308 307 307 307 306 306 306 305 304 304 304 304 304 305 305 306 306 306 306 307 307 307 307 307 307 307 306 306 306 306 306 305 305 305 304 304 303 303 302 302 302 301 301 301 301 301 301 301 300 300 300 300 300 300 300 300 299 299 299 299 298
273 277 282 287 290 291 293 296 298 300 302 302 303 303 304 303 303 304 306 307 307 307 307 307 307 306 305 305 305 306 306 306 306 305 304 304 304 303 304 304 305 305 305 305 305 305 306 306 306 306 306 306 306 307 307 306 306 305 305 304 304 303 303 302 302 302 301 301 301 301 301 300 300 300 300 300 300 300 300 300 300 300 300 300 300 299
272 275 280 284 286 288 292 294 297 300 302 302 302 302 302 302 302 303 304 305 305 305 305 305 304 304 304 304 305 306 307 306 306 304 303 302 302 303 303 303 303 304 303 303 304 304 304 304 305 305 306 306 306 307 306 306 306 305 305 304 304 303 303 302 302 302 301 301 301 300 300 300 300 300 300 300 300 300 301 301 301 301 301 300 300 300
271 274 277 280 283 286 290 293 296 299 300 300 301 301 301 301 302 302 302 303 303 303 303 303 303 303 304 305 306 306 306 305 304 303 302 302 302 302 302 302 302 302 302 302 302 302 302 303 303 304 305 305 306 306 306 305 305 304 304 304 303 303 302 302 302 301 301 301 301 300 300 300 300 300 301 301 301 301 301 301 301 301 301 300 300 299
270 274 276 279 283 288 291 293 295 298 299 299 298 299 300 301 301 301 301 301 301 302 302 303 303 304 304 305 305 305 304 303 302 302 302 302 302 302 302 302 301 301 301 300 300 300 300 301 302 303 303 304 304 304 304 304 304 303 303 303 303 302 302 302 301 301 301 301 301 301 301 301 301 302 302 302 302 302 302 302 302 301 301 301 300 300
265 271 276 279 282 287 290 293 296 298 299 298 297 297 299 301 302 302 302 301 301 302 303 304 304 304 304 304 303 303 302 302 301 301 301 302 302 302 302 301 301 300 300 299 299 298 299 300 300 301 302 302 302 303 302 302 302 302 302 302 302 302 302 301 301 301 301 301 301 302 302 302 302 303 303 303 303 303 303 303 302 302 302 301 301 300
262 267 274 278 281 283 285 289 294 299 300 298 296 296 297 299 301 302 303 302 302 303 304 303 304 304 304 304 304 303 303 302 301 300 300 300 301 301 301 300 300 299 298 298 297 297 298 299 299 300 300 300 300 301 301 300 300 301 301 301 301 301 301 301 301 301 302 302 302 302 303 303 303 304 304 304 303 303 303 303 303 303 302 302 302 301
261 266 271 277 282 283 282 284 291 297 299 298 297 296 296 296 299 302 303 303 304 305 305 303 303 303 304 305 305 304 304 303 302 301 301 301 301 301 301 300 299 298 297 297 297 297 298 298 298 299 299 299 299 299 299 299 299 299 300 300 300 300 301 301 301 301 302 302 302 303 303 304 304 304 304 304 304 304 304 304 304 304 303 303 302 302
261 267 271 276 280 282 283 286 291 295 298 299 300 300 299 299 300 301 302 302 303 305 305 304 303 302 302 304 305 305 304 303 303 303 303 303 303 303 303 302 301 300 299 298 298 298 298 298 298 298 299 298 298 298 298 298 298 299 299 299 300 300 300 300 301 301 302 302 303 303 303 304 304 304 304 304 305 305 305 305 304 304 304 303 303 303
260 265 270 273 277 280 284 289 294 297 298 299 299 299 299 301 302 302 300 299 300 302 303 304 303 302 302 302 303 304 304 304 303 303 304 304 305 305 305 303 302 301 300 300 299 299 299 299 299 299 299 298 298 297 297 298 298 298 298 299 299 299 300 300 301 301 302 302 303 303 303 304 304 304 304 305 305 305 305 305 305 304 304 303 303 303
259 264 268 271 274 278 283 289 293 295 296 296 296 296 297 300 301 301 300 298 299 300 302 302 302 302 303 303 304 304 305 305 305 305 305 304 305 306 305 303 301 301 301 300 300 299 300 300 300 299 299 299 298 298 298 298 298 298 298 299 299 299 300 300 301 301 302 302 303 303 303 304 304 304 304 304 304 304 304 304 304 304 303 303 303 302
258 263 266 270 273 278 283 288 291 292 292 294 295 297 298 299 300 301 300 299 300 303 304 304 303 302 303 304 305 307 308 307 307 307 306 304 304 305 304 302 301 301 301 300 299 299 300 300 299 299 299 299 299 299 299 298 298 298 298 299 299 300 300 300 301 301 302 302 303 303 303 304 304 304 304 304 304 304 303 303 303 302 302 302 302 301
257 262 266 271 275 279 282 286 289 290 292 294 296 298 299 300 300 301 300 300 302 305 306 307 307 306 304 305 307 310 312 310 308 306 305 303 303 304 305 303 301 301 301 300 299 300 300 300 299 299 299 299 299 299 299 298 298 298 299 299 299 300 300 301 301 302 302 303 303 303 303 303 303 303 303 303 303 303 302 302 302 302 302 302 302 302
259 263 267 273 277 280 283 286 287 289 292 295 296 297 297 298 299 300 301 301 303 305 306 307 307 308 307 308 308 311 314 311 308 305 302 301 301 304 306 303 301 300 300 300 299 300 300 300 300 299 299 299 299 299 299 298 298 299 299 299 300 300 301 301 302 302 303 303 303 303 303 303 303 303 303 302 303 303 303 303 303 303 303 303 303 303
262 265 270 274 278 281 285 287 289 290 293 295 297 298 297 297 298 299 300 301 303 303 304 303 302 301 303 305 306 309 312 309 306 302 300 299 301 305 307 304 301 299 299 299 299 300 300 300 300 299 299 299 299 299 298 299 299 299 299 300 300 301 301 302 302 303 303 303 303 303 303 303 303 303 303 303 303 304 304 305 305 305 305 305 304 304
265 266 270 273 277 281 284 286 287 290 293 295 298 300 300 299 299 299 299 299 299 299 299 299 298 296 296 296 300 305 308 306 302 300 300 301 303 305 307 306 303 300 300 299 300 301 301 301 300 300 299 299 299 299 298 299 299 299 300 300 301 301 302 302 303 303 303 303 303 303 303 303 303 304 304 305 306 306 306 306 306 306 306 305 305 304
266 267 268 271 277 281 282 283 284 287 291 294 297 298 299 299 299 299 297 297 295 294 294 293 293 292 292 292 296 301 304 303 302 301 302 303 303 305 307 307 305 302 301 300 301 302 302 302 301 301 300 300 299 299 299 299 299 300 300 301 302 302 303 303 303 303 303 303 303 303 304 304 305 306 306 307 307 307 307 306 306 306 306 305 305 305
265 267 267 270 273 277 279 281 283 286 289 292 294 296 296 297 297 296 295 295 294 293 292 289 288 288 289 289 291 295 300 301 302 304 306 305 303 304 306 307 306 303 301 301 302 303 303 302 301 301 300 300 299 299 299 299 300 301 301 302 302 303 303 303 303 303 304 304 304 305 306 306 307 307 307 307 307 307 307 307 307 307 307 307 306 306
262 265 268 269 269 270 274 278 281 284 286 289 291 292 292 293 293 293 292 293 292 290 287 285 284 285 286 286 288 291 296 301 304 305 307 305 302 303 306 308 307 304 302 302 303 304 304 303 301 301 300 300 300 299 300 300 301 301 302 302 303 303 303 304 304 305 305 306 306 307 307 308 308 308 308 308 308 308 308 308 308 308 308 308 308 308
260 264 268 270 270 271 274 277 280 283 285 286 286 285 286 286 286 287 287 287 286 284 284 283 284 285 285 284 286 291 298 305 307 307 305 301 300 302 306 308 307 304 302 302 304 305 305 303 302 301 301 301 300 300 300 301 301 302 302 303 303 304 304 305 305 306 307 308 308 308 308 308 308 308 309 309 309 309 310 310 310 310 310 310 310 309
263 267 270 271 273 274 277 279 281 284 285 285 285 284 284 283 283 282 282 282 282 282 283 284 285 285 286 289 294 298 302 306 308 307 304 299 297 300 304 307 307 304 302 302 304 305 305 303 302 302 302 301 301 301 301 301 302 303 303 303 304 305 305 306 307 307 308 308 308 308 308 308 309 309 310 310 311 311 311 311 312 311 311 311 311 311
268 270 272 274 276 278 279 281 282 284 284 284 284 284 284 283 282 281 281 280 280 280 280 281 284 289 295 300 301 301 302 306 308 307 303 299 297 299 302 305 305 303 302 303 305 305 305 304 303 302 302 302 301 301 302 302 303 304 304 305 305 306 307 307 308 308 308 308 308 308 309 309 310 311 311 312 312 312 313 313 313 313 313 313 312 312
270 271 273 275 276 278 278 279 279 279 279 279 280 281 282 282 281 281 280 279 280 281 286 292 296 299 301 301 301 301 303 306 307 306 303 300 298 298 301 304 304 303 303 304 305 306 305 304 303 303 303 302 302 302 303 304 304 305 306 306 306 307 307 307 308 308 308 308 308 309 310 310 311 312 312 313 313 314 314 314 314 314 314 314 313 312
265 267 269 272 273 275 276 276 277 277 277 276 277 278 280 282 283 283 281 283 288 295 303 305 303 301 301 300 299 300 303 306 307 305 303 299 297 297 300 304 305 305 305 305 305 305 304 303 302 302 302 302 303 303 304 305 306 306 307 306 306 307 307 307 308 308 308 308 309 310 310 311 312 313 313 314 314 315 315 315 315 315 315 314 313 312
263 265 267 270 273 275 276 276 277 277 277 276 276 278 281 284 285 285 285 291 299 305 305 302 300 300 300 299 299 301 303 304 305 305 305 301 296 295 299 304 307 307 306 305 305 304 302 300 300 301 302 303 304 305 306 307 307 307 306 306 306 306 307 308 308 309 309 309 310 310 311 312 312 313 314 314 315 315 315 316 316 316 315 314 313 311
265 267 270 272 274 275 277 277 277 278 279 280 281 283 284 283 282 283 286 293 299 301 298 296 295 295 297 298 299 300 301 302 304 308 311 307 300 297 300 304 306 307 308 307 307 305 303 300 300 301 303 305 306 307 307 308 308 307 307 307 307 307 308 309 310 310 310 310 310 311 311 312 313 313 314 315 315 315 316 316 316 316 315 314 312 310
269 272 273 273 274 275 276 277 278 280 282 283 283 283 280 277 275 278 284 290 292 292 290 290 291 292 295 299 301 301 300 300 305 312 316 312 304 300 303 304 305 306 309 310 310 308 305 303 303 304 305 307 307 307 307 308 308 308 308 308 309 309 310 311 311 311 311 311 311 311 312 312 313 313 314 314 315 315 316 316 317 317 316 314 312 310
274 275 275 275 274 274 275 276 278 280 281 281 279 277 275 275 276 279 283 285 285 284 284 286 287 289 292 296 299 299 297 300 304 311 315 311 303 300 303 304 304 305 307 310 310 310 307 306 306 307 308 308 307 307 307 307 307 307 308 309 309 310 311 312 312 312 312 312 312 312 312 312 313 313 314 314 315 315 316 317 317 317 316 314 313 311
277 276 275 275 274 275 276 277 277 277 277 276 276 276 278 280 281 282 282 282 282 281 281 282 284 286 288 288 286 286 290 295 301 307 312 308 301 299 300 301 301 302 304 303 300 298 301 303 305 307 308 308 307 306 306 306 306 307 308 309 310 310 312 313 313 313 312 312 312 312 312 313 313 314 314 314 315 315 316 317 318 318 317 315 314 312
275 275 274 274 275 277 278 276 274 272 272 274 277 281 283 283 282 282 281 280 280 280 280 282 285 287 287 286 284 284 286 290 296 303 308 306 301 299 300 300 300 301 302 300 297 292 289 292 299 303 305 305 305 305 305 305 306 306 308 309 310 310 312 313 313 313 312 312 312 312 313 313 314 314 315 315 315 316 316 317 317 318 317 316 315 314
274 274 275 275 275 274 272 270 268 270 274 278 281 283 283 282 281 280 279 279 278 278 279 282 285 287 289 288 287 286 286 289 294 300 305 305 302 299 299 299 299 300 301 300 298 295 291 291 295 299 302 303 303 303 303 304 305 306 307 308 309 310 311 312 312 312 312 312 312 312 313 314 315 315 315 316 316 316 317 317 317 317 317 317 316 316
276 276 275 274 270 267 264 265 269 274 279 282 283 283 282 280 279 279 278 278 278 278 278 279 280 283 285 287 288 288 288 290 293 298 302 302 300 298 297 296 296 297 298 297 297 296 293 293 294 296 299 301 302 302 302 304 305 307 307 308 308 309 309 310 311 311 311 312 312 313 314 315 316 316 316 316 316 316 316 316 316 317 317 317 316 316
275 274 270 266 263 261 264 271 277 280 282 283 282 281 280 279 279 279 278 278 278 278 278 278 278 279 281 282 283 285 286 289 292 295 296 296 295 294 292 291 291 292 293 293 293 293 292 294 295 296 297 298 299 301 303 305 307 308 308 308 309 309 309 309 310 310 311 311 312 313 314 315 315 315 315 315 315 316 316 316 316 316 317 317 316 316
270 266 263 260 260 265 273 278 281 282 282 282 281 280 279 279 280 280 280 280 280 280 280 281 282 282 282 282 281 281 283 286 289 291 291 290 289 287 285 285 286 287 286 287 289 291 292 293 295 296 295 294 295 298 302 306 308 309 309 309 309 309 309 309 309 310 311 311 311 312 313 314 314 315 315 315 316 316 316 317 317 317 318 317 317 315
262 259 259 261 266 272 277 280 281 281 281 281 280 280 280 280 281 282 282 283 283 285 286 287 288 288 287 286 284 283 284 285 287 288 288 287 286 284 282 283 284 284 283 283 285 287 289 290 292 294 294 294 293 295 299 304 307 308 308 309 309 308 308 309 311 312 312 312 311 312 313 313 314 314 315 316 317 317 317 318 318 319 319 318 317 316
257 258 261 266 271 276 278 279 280 280 280 280 280 281 281 282 283 284 285 287 289 290 291 292 292 292 291 290 288 286 285 285 286 286 287 286 284 283 281 281 282 283 282 281 281 282 283 284 285 287 290 293 294 296 298 301 302 305 307 309 310 309 309 311 312 313 312 312 312 312 313 314 314 314 315 316 317 317 318 318 319 319 320 320 319 317
259 262 267 271 275 278 278 279 279 279 279 279 280 281 282 285 287 289 290 292 294 295 296 296 295 294 292 290 289 287 286 286 286 286 286 286 284 283 281 279 279 281 281 280 279 278 277 278 279 281 283 287 291 295 297 298 300 302 306 308 308 308 309 311 312 312 312 312 312 313 313 314 314 314 315 315 316 316 317 317 317 318 318 318 318 318
269 271 273 276 278 279 279 278 278 278 278 279 282 284 286 289 292 295 297 299 299 300 300 299 298 296 293 291 289 288 288 288 288 288 288 288 287 285 282 279 277 277 278 278 277 276 274 274 276 279 281 283 288 291 293 294 297 300 302 302 303 304 306 308 309 310 312 312 313 313 314 314 314 315 315 315 315 315 315 315 315 315 316 316 315 315
274 275 277 279 279 279 277 277 276 277 278 281 284 287 290 294 297 300 302 303 302 302 301 301 300 298 296 294 293 292 291 291 291 291 290 290 289 287 285 281 278 277 276 275 275 275 274 273 273 276 279 284 288 290 292 293 295 297 297 298 300 303 305 306 308 310 312 313 313 314 314 314 314 314 315 314 314 314 313 313 313 313 313 313 313 313
275 276 278 278 278 277 276 276 277 279 282 285 288 291 294 297 300 302 303 302 301 300 300 300 299 298 297 296 296 296 295 295 294 294 293 292 291 289 287 285 282 279 276 274 274 275 275 275 274 276 280 284 287 288 289 291 293 295 295 296 300 303 305 305 307 310 312 312 312 313 313 313 313 313 313 313 313 313 313 312 312 312 311 311 311 311
277 277 278 277 276 275 276 277 280 284 288 291 293 295 297 299 301 302 301 299 298 298 298 298 298 297 296 294 296 298 299 299 299 298 295 293 291 290 288 287 286 284 281 277 276 278 281 281 280 280 282 284 284 284 285 288 291 293 294 296 297 297 296 298 303 307 309 310 310 311 311 313 313 314 313 313 312 312 312 312 312 312 311 311 311 311
276 276 276 276 275 276 278 281 286 290 293 295 296 297 299 301 302 301 299 297 296 295 295 297 298 297 295 294 296 299 301 302 302 300 298 296 293 290 289 289 289 289 286 283 281 281 283 284 284 285 285 284 282 281 283 286 289 291 292 294 294 293 292 295 299 302 305 307 308 309 311 313 315 315 314 313 312 312 311 311 311 312 312 313 313 312
273 273 273 274 276 279 283 288 292 294 295 295 296 297 299 301 301 299 296 294 293 293 293 294 294 293 291 293 297 300 302 302 302 302 301 299 297 296 294 293 293 292 290 287 285 282 281 280 282 285 287 286 284 282 282 283 285 288 290 292 294 295 296 297 299 300 302 303 305 308 311 314 317 317 314 312 311 310 310 309 310 311 312 314 314 313
270 271 273 277 281 285 288 291 293 294 294 295 295 297 299 301 300 297 295 293 292 291 291 292 291 289 288 290 294 297 299 300 301 301 301 301 301 300 299 298 297 295 292 289 286 284 281 279 280 281 284 285 285 283 282 281 282 284 287 291 294 296 297 298 299 301 302 303 305 309 313 316 318 316 313 311 310 309 309 310 310 311 312 313 314 314
269 273 278 282 286 288 289 291 292 293 293 294 296 297 299 299 298 296 293 292 291 290 290 290 289 288 287 289 290 292 294 295 296 299 300 301 301 301 301 302 301 299 296 292 288 285 283 281 279 278 277 276 277 279 281 281 281 282 285 289 292 294 296 298 300 302 304 306 308 310 313 316 315 313 310 310 309 308 309 310 312 313 313 314 315 315
273 277 281 284 285 286 287 288 290 291 292 294 295 296 297 297 295 293 291 291 290 289 288 287 287 288 288 289 290 291 292 292 293 295 297 299 301 302 303 305 304 303 301 298 294 291 288 285 281 277 274 270 269 271 275 278 280 282 285 288 291 293 295 298 301 304 307 309 310 311 312 312 310 307 306 306 307 307 309 311 312 313 315 316 316 316
276 278 280 282 282 282 283 286 288 290 291 293 294 295 295 295 294 292 291 290 289 287 285 285 286 287 288 289 290 291 291 291 292 293 295 298 301 303 305 307 308 308 307 304 302 300 298 294 289 283 276 270 266 266 269 274 280 285 289 290 292 295 297 300 303 305 308 310 310 310 310 309 308 306 305 305 306 308 310 311 312 313 315 317 317 317
275 276 277 277 277 278 280 283 286 288 290 291 292 292 292 293 293 293 292 291 289 288 287 286 285 285 286 288 289 290 290 290 290 291 294 298 302 304 306 308 310 311 310 309 308 308 307 304 300 296 290 280 270 265 268 274 283 290 294 295 297 299 301 302 304 306 308 309 309 309 309 308 307 307 307 308 309 310 310 311 311 313 315 317 318 318
Height
839 839 838 838 838 838 836 836 836 836 834 834 833 833 833 832 831 831 830 830 829 828 827 826 826 825 824 824 823 823 822 821 820 820 819 818 818 817 816 814 813 812 811 810 808 808 806 805 804 803 802 800 799 798 797 796 794 793 792 791 790 788 787 786 785 784 783 782 780 779 778 777 776 775 773 772 771 770 769 768 766 765 764 763 762 761
838 837 837 837 837 836 835 834 835 834 833 832 832 831 831 830 829 828 828 828 827 827 826 825 824 823 823 822 821 821 820 819 819 818 818 817 816 815 814 813 812 811 809 808 807 805 804 803 802 801 799 798 797 796 795 794 793 791 790 789 788 786 785 784 783 782 780 779 778 777 776 775 773 772 771 770 769 768 766 765 764 763 762 760 759 758
836 836 836 836 835 835 834 833 833 833 833 831 830 830 829 828 827 827 826 826 825 825 824 823 823 822 821 820 820 819 818 818 817 817 816 815 814 813 812 811 810 809 808 806 805 803 802 801 799 798 797 796 795 794 793 792 790 789 788 787 785 784 783 782 781 779 778 777 776 775 774 773 771 770 769 768 767 765 764 763 762 760 759 758 757 756
835 835 834 834 834 833 833 832 832 832 831 830 829 828 828 827 826 825 824 824 823 823 822 822 821 820 819 818 818 818 817 816 816 815 814 813 813 812 811 810 809 807 806 804 803 801 800 799 798 796 795 794 793 792 791 789 788 787 786 784 783 782 781 780 778 777 776 775 774 773 772 770 769 768 767 766 764 763 762 761 759 758 757 756 754 753
834 834 833 833 833 832 832 831 831 830 830 829 828 827 827 826 825 824 823 823 822 821 820 820 820 819 818 817 817 816 816 815 814 813 813 812 811 810 809 808 807 806 804 803 801 800 798 797 796 794 793 792 791 789 788 787 786 785 783 782 781 780 779 778 776 775 774 773 772 770 769 768 767 766 764 763 762 761 759 758 757 756 755 753 752 751
833 833 833 832 832 831 830 830 830 829 828 827 826 826 825 824 823 823 822 821 820 820 819 819 818 818 817 816 815 815 814 813 813 812 811 810 810 809 808 807 805 804 803 801 800 798 797 795 794 793 792 790 789 788 786 785 783 782 781 780 779 778 776 775 774 773 772 770 769 768 767 766 764 763 762 761 760 758 757 756 755 754 753 751 750 749
831 831 832 831 831 830 829 829 828 828 828 826 825 824 823 823 823 822 821 820 819 819 818 817 817 816 816 815 814 813 813 812 811 811 810 809 808 807 806 805 804 803 801 800 798 797 796 794 793 791 790 788 787 786 784 783 781 780 779 778 776 775 774 773 771 770 769 768 767 765 764 763 762 761 760 758 757 756 755 753 752 751 750 748 747 746
830 830 830 830 829 828 828 828 827 827 827 825 824 823 822 821 821 821 820 819 819 818 817 816 815 815 814 814 813 813 812 811 810 809 808 807 806 805 804 803 802 801 800 798 797 796 794 793 792 790 789 787 786 784 782 781 779 778 776 775 774 773 771 770 769 768 767 765 764 763 762 761 759 758 757 756 755 753 752 751 750 748 747 746 745 743
829 829 829 829 829 828 827 826 826 826 826 825 824 823 821 820 819 819 818 818 818 817 816 815 814 813 813 813 812 811 810 809 808 807 806 805 804 803 802 801 800 799 798 797 795 794 793 792 790 789 787 786 784 782 781 779 777 776 774 773 772 770 769 768 767 765 764 763 762 761 759 758 757 756 755 753 752 751 749 748 747 746 744 743 742 741
828 828 828 828 828 828 827 825 824 824 825 824 823 823 822 820 819 817 816 816 816 816 815 814 813 812 810 810 810 809 808 807 807 806 805 804 803 802 801 800 798 797 796 795 794 793 791 790 788 787 786 784 782 781 779 777 775 774 773 771 770 768 767 766 764 763 762 761 759 758 757 756 754 753 752 751 749 748 747 745 744 743 742 740 739 738
828 827 827 827 826 826 826 825 824 824 824 823 823 822 822 821 819 818 815 814 813 813 813 813 812 811 809 808 808 807 807 805 804 803 803 802 801 800 799 798 797 795 794 793 792 791 789 788 786 785 783 782 780 779 777 775 774 772 771 769 768 767 765 764 763 761 760 759 757 756 755 753 752 751 749 748 747 745 744 743 741 740 739 737 736 735
827 827 826 826 825 825 825 824 824 823 823 823 822 820 820 820 819 818 816 813 812 812 811 810 810 810 809 808 806 805 805 804 803 801 800 800 799 798 797 796 794 793 792 791 790 788 787 786 784 783 781 780 778 777 775 773 772 770 769 768 766 765 763 762 761 759 758 757 755 754 753 751 750 748 747 746 744 743 741 740 738 737 736 735 733 732
826 826 826 825 825 824 824 823 823 823 822 822 821 820 819 818 818 817 816 813 812 811 810 809 808 808 808 807 806 805 803 802 801 800 799 798 797 797 795 794 792 791 790 788 787 786 785 783 782 780 779 778 776 774 773 772 770 769 767 766 764 763 762 760 759 758 756 755 753 752 751 749 748 746 745 743 742 741 739 738 736 735 733 732 731 729
824 825 824 824 823 823 823 823 823 822 821 821 820 819 818 817 817 816 814 812 811 810 809 808 807 806 805 805 805 804 803 801 799 798 797 797 796 795 794 792 790 789 788 786 784 783 783 781 779 778 776 775 773 772 771 770 768 767 766 764 763 762 760 759 757 756 755 753 752 750 749 748 746 744 743 742 740 738 737 736 734 733 731 730 728 727
823 823 823 823 822 822 822 822 822 821 820 820 819 818 817 816 815 815 813 811 809 808 808 807 805 804 804 804 804 803 802 800 798 797 795 794 794 794 793 790 788 787 786 784 782 781 780 779 778 775 774 773 772 770 769 768 766 765 764 763 761 760 758 757 756 754 753 751 750 748 747 746 744 743 741 739 738 737 735 733 732 731 729 728 726 725
822 822 822 821 821 821 821 821 821 820 819 818 818 818 816 815 814 813 813 811 809 808 807 806 803 802 801 802 803 803 801 799 798 796 794 791 791 792 792 789 786 784 783 783 781 779 778 777 776 774 772 771 769 768 767 766 765 763 762 761 759 758 756 755 754 752 751 749 748 747 745 743 742 741 739 738 736 735 733 732 730 728 727 725 724 723
821 821 821 820 820 820 820 820 820 819 818 818 817 816 816 814 813 812 812 810 809 808 807 806 804 802 799 798 800 801 801 799 796 794 793 790 788 789 790 788 785 782 781 780 778 777 776 774 773 772 770 769 768 767 765 764 763 761 760 758 757 756 754 753 752 750 749 748 746 745 743 742 740 739 737 736 734 733 731 729 728 726 725 723 722 720
819 819 819 819 819 818 818 819 818 818 817 816 815 815 814 813 813 812 811 810 809 808 806 805 805 803 801 798 797 798 800 798 795 793 791 788 787 787 788 787 784 781 779 777 776 775 774 773 771 770 768 767 766 765 763 762 761 759 758 756 755 754 753 751 750 748 747 745 744 743 741 740 738 737 735 733 732 731 729 728 726 724 723 721 720 718
818 818 818 818 818 817 817 817 817 817 816 815 814 813 812 811 811 811 810 809 808 808 806 805 803 803 802 799 797 797 798 797 794 792 789 787 784 784 785 784 782 779 777 775 774 773 772 771 769 768 766 765 764 763 761 760 758 757 756 754 753 752 750 749 748 746 745 743 742 740 739 738 736 735 733 732 730 728 727 725 724 722 721 719 718 716
816 816 817 817 817 816 816 816 816 816 815 814 813 813 811 810 810 809 809 808 807 807 806 804 803 801 800 798 796 795 796 795 793 791 788 785 783 781 782 782 780 777 775 773 772 772 770 768 767 765 764 763 762 761 759 758 756 755 754 752 751 750 748 747 746 744 743 741 740 738 737 736 734 733 731 730 728 726 725 723 722 720 718 717 715 713
814 814 814 815 816 815 814 814 814 814 814 813 812 811 810 809 808 808 808 807 806 805 804 803 801 799 798 796 794 793 794 794 793 790 787 784 780 779 780 780 778 775 773 771 770 769 768 767 765 763 762 761 759 758 757 756 754 753 752 750 749 748 746 745 744 742 741 739 738 737 735 734 732 731 729 728 726 724 723 721 719 718 716 714 713 711
812 812 812 813 814 813 813 812 812 812 812 812 811 810 809 808 808 807 806 806 805 804 803 801 799 797 796 795 793 793 793 793 793 790 787 783 778 776 778 778 777 774 771 769 768 767 766 765 763 761 760 759 758 756 755 753 752 751 750 748 747 746 744 743 742 740 739 738 736 735 733 732 730 728 727 725 723 722 720 718 717 715 714 712 711 709
810 810 810 811 811 811 811 810 810 810 811 810 810 809 808 808 807 806 805 804 803 802 800 798 796 795 794 793 792 792 793 793 792 790 788 783 777 774 776 776 775 772 769 768 766 764 763 762 761 759 758 757 756 754 753 752 750 749 748 746 745 744 743 741 740 739 737 736 734 733 731 729 728 726 725 723 721 720 718 717 715 713 712 710 708 707
808 808 808 809 809 809 809 809 809 809 809 809 808 808 807 807 806 805 803 803 801 799 797 795 794 793 792 792 792 791 791 792 791 789 787 783 778 775 774 775 773 770 767 766 765 763 761 760 758 757 756 755 753 752 751 749 748 747 746 744 743 742 741 740 738 737 735 734 732 731 729 728 726 724 723 721 719 718 716 714 713 711 709 708 706 704
806 806 806 807 807 808 808 807 807 807 807 807 807 806 805 804 803 803 801 800 799 798 796 795 793 792 791 791 790 789 789 790 790 789 786 782 778 774 774 774 773 770 766 764 763 762 760 758 756 755 754 753 751 750 749 748 746 745 744 743 742 740 739 738 737 735 733 732 730 728 727 725 724 722 721 719 717 716 714 712 711 709 708 706 704 702
804 804 805 805 805 806 806 806 806 806 806 806 805 804 804 803 802 800 799 799 798 797 796 794 793 791 790 790 788 787 787 788 788 788 786 783 778 773 772 773 773 769 765 762 761 760 759 756 754 753 752 750 749 748 747 746 744 743 742 741 740 739 738 736 735 733 732 730 728 727 725 723 722 720 719 717 716 714 712 711 709 707 705 703 702 700
803 803 803 804 804 804 805 805 805 805 805 805 804 804 803 802 801 799 798 798 798 797 795 794 792 790 788 788 787 786 785 786 786 786 785 783 778 774 771 772 771 769 765 761 760 759 758 755 753 751 750 748 747 746 745 744 743 742 741 739 738 737 736 734 733 731 729 728 726 725 723 722 720 718 717 715 714 712 710 709 707 705 703 702 700 698
801 802 802 803 803 803 803 803 803 803 803 803 803 803 802 802 800 799 798 797 797 796 795 794 792 790 788 786 785 784 784 784 784 784 783 782 778 774 771 771 770 769 766 761 758 756 756 754 752 750 748 746 745 744 743 742 741 740 738 737 736 735 733 732 731 729 728 726 724 723 721 720 718 717 715 714 712 711 709 707 705 703 702 700 698 696
799 800 800 801 801 801 801 801 801 801 801 801 801 801 801 801 799 798 797 797 796 795 794 793 792 791 788 786 784 783 782 783 783 783 782 780 777 773 772 771 770 768 766 762 757 753 752 751 750 749 747 745 744 743 741 740 739 738 736 735 734 733 732 730 729 727 726 724 723 721 719 718 717 715 714 712 711 709 707 706 704 702 700 698 696 694
798 798 798 799 799 799 800 800 800 800 800 800 800 799 799 799 798 797 796 796 796 795 793 792 791 790 788 786 783 781 779 780 781 782 781 779 776 773 771 770 769 768 767 764 758 752 747 746 747 748 747 745 743 741 740 738 737 736 734 733 732 731 730 728 727 725 724 722 721 719 718 716 715 713 712 711 709 708 706 704 703 701 699 697 695 693
796 796 797 797 797 798 798 798 798 798 798 798 798 798 797 797 796 796 795 795 794 793 792 790 789 789 788 788 785 781 777 777 779 781 780 778 775 772 771 770 768 767 767 766 763 756 748 743 742 744 745 744 742 740 738 737 736 734 733 732 730 729 728 727 725 723 722 720 719 718 716 715 713 712 710 709 708 706 704 703 702 700 698 695 693 691
794 795 795 795 796 796 796 796 796 796 796 796 796 796 795 795 795 794 794 793 793 792 791 789 788 788 788 787 786 782 778 777 778 780 780 778 774 771 771 770 768 766 766 766 766 762 756 747 742 741 743 742 741 738 737 736 735 733 732 730 729 727 726 725 724 722 720 718 717 715 714 713 711 710 709 707 706 704 703 702 701 699 697 695 692 690
793 793 793 793 793 794 794 794 794 794 794 794 794 794 793 793 793 793 792 792 791 790 789 788 787 786 786 785 784 782 779 777 778 779 779 778 774 771 769 769 767 765 764 764 764 763 759 753 747 743 741 740 739 738 736 734 733 733 731 730 728 726 724 723 722 721 719 717 715 713 712 711 709 708 707 706 704 703 702 700 699 698 696 694 692 689
791 791 791 792 792 792 792 792 793 793 793 793 792 792 792 792 791 791 791 790 790 789 788 787 786 785 784 783 782 779 777 777 777 778 778 777 774 771 769 768 767 765 764 763 761 760 758 755 751 747 742 738 737 736 735 733 732 731 730 729 728 725 723 722 721 719 717 716 714 712 710 709 708 706 705 704 703 701 700 699 698 697 696 694 692 689
789 789 790 790 790 790 790 791 791 791 791 791 791 791 790 790 790 789 789 788 788 787 787 786 785 785 784 783 781 778 775 775 776 777 777 776 774 772 769 767 766 765 764 762 760 758 756 753 751 748 745 739 735 733 733 733 731 730 729 728 727 725 723 722 720 718 716 714 713 711 709 708 706 705 703 702 701 700 698 697 696 695 694 693 691 689
788 788 788 788 788 788 789 789 789 789 789 789 789 789 789 789 788 788 787 786 786 785 784 784 783 783 783 782 780 778 775 773 774 775 776 775 774 772 769 766 765 765 764 761 759 758 755 752 749 748 746 742 737 732 730 730 730 729 727 726 725 724 722 721 719 718 716 713 712 710 708 707 705 704 702 701 700 698 697 696 694 693 692 691 690 688
786 786 786 786 787 787 787 788 788 788 788 788 788 788 788 787 786 785 785 784 783 783 782 782 781 781 780 780 779 777 774 773 773 773 773 773 772 771 768 765 764 763 763 761 758 757 755 752 749 746 744 742 738 734 730 728 727 727 725 724 723 722 721 719 718 717 715 713 711 709 708 706 705 703 701 699 698 697 695 693 692 691 690 688 687 686
784 784 785 785 786 786 786 786 786 786 787 786 786 786 785 785 784 783 782 782 781 780 780 779 778 778 778 777 776 775 773 772 771 771 771 771 770 769 767 764 762 762 761 760 758 756 755 752 749 746 743 740 738 735 732 730 728 725 723 722 721 720 719 718 717 716 714 712 710 708 707 705 704 702 700 698 697 695 693 691 690 689 688 686 684 683
783 783 783 784 784 785 785 785 785 785 785 785 784 784 783 782 782 781 780 779 779 778 778 777 776 775 774 774 773 773 772 771 770 769 769 768 768 767 765 763 761 759 759 758 757 756 754 752 749 747 743 740 736 733 732 730 729 726 723 721 718 717 717 717 716 715 713 712 710 708 706 704 703 701 699 698 696 694 692 690 688 687 686 684 681 680
781 782 782 783 783 783 783 783 783 783 783 783 782 782 781 780 779 778 778 778 777 776 775 775 774 773 772 772 771 770 769 769 768 767 767 766 765 764 763 762 760 758 757 756 755 754 753 751 748 746 744 741 737 734 731 729 728 727 725 722 718 715 714 714 714 713 712 711 709 707 705 703 702 700 699 697 696 694 693 690 688 687 685 683 681 678
780 781 781 781 782 782 782 782 782 782 782 781 780 779 779 778 778 777 776 775 775 774 773 773 772 771 770 769 769 768 767 767 766 765 764 763 763 762 761 760 758 757 755 754 753 752 751 749 747 745 743 740 738 735 731 729 728 727 726 723 720 716 713 713 713 712 711 709 708 707 705 703 701 699 698 696 695 694 692 691 688 686 685 683 682 680
779 779 780 780 781 781 781 781 781 780 780 779 778 778 777 777 776 775 774 773 773 772 772 772 771 769 768 767 766 766 765 765 764 763 762 761 760 760 759 758 756 755 754 753 751 750 748 748 746 743 741 739 738 734 731 728 726 726 725 723 720 717 713 711 710 711 710 708 707 706 704 703 701 698 697 695 694 692 691 690 688 686 684 683 681 680
778 778 779 779 779 779 779 779 779 778 778 777 777 776 776 775 774 774 773 772 772 771 771 770 770 768 767 765 763 763 763 763 762 761 760 759 758 758 757 755 754 753 753 751 749 747 746 745 744 742 740 739 737 734 731 727 725 724 723 722 721 719 715 710 708 708 708 708 706 705 704 702 700 698 696 694 693 691 689 688 687 686 684 682 680 679
777 777 778 778 778 778 778 777 777 777 776 776 775 774 774 774 773 773 772 771 771 770 770 769 768 768 766 764 762 761 760 760 760 759 759 758 757 756 755 754 753 752 751 750 748 746 744 743 742 740 739 738 736 734 730 727 724 723 721 721 721 719 717 713 710 708 707 706 705 704 703 702 700 697 695 693 691 690 688 687 685 683 682 681 679 678
776 776 776 777 777 776 776 776 775 775 775 774 773 773 773 772 772 772 771 770 770 769 769 768 768 766 764 763 761 760 758 758 757 757 757 756 755 754 753 752 751 750 749 748 747 745 743 742 739 738 738 737 735 732 729 727 724 722 720 719 718 717 715 713 711 710 708 706 704 703 702 701 699 697 694 692 689 688 687 685 683 682 680 679 678 676
775 775 775 775 775 775 775 774 774 774 773 773 772 772 771 771 771 770 770 770 769 768 768 768 767 766 763 762 760 759 758 756 755 755 754 754 753 753 752 751 750 748 748 746 745 744 743 741 739 737 736 734 732 730 728 726 724 722 719 718 716 715 713 712 710 709 708 706 704 703 701 700 698 696 694 691 688 686 685 684 683 681 679 678 676 675
774 774 774 774 774 774 773 773 773 772 772 771 771 770 770 770 769 769 769 768 768 767 766 766 765 764 763 761 760 759 757 755 754 753 753 752 751 751 750 749 748 747 746 744 743 742 741 739 738 737 735 733 730 727 725 724 723 721 719 717 715 714 712 710 709 708 707 706 704 702 701 699 698 695 693 690 687 685 683 682 681 680 678 677 675 673
773 773 773 773 773 772 772 772 772 771 770 770 769 769 769 769 768 768 768 767 767 766 765 765 764 763 761 760 759 758 757 755 753 752 751 750 750 749 748 747 746 744 743 742 741 740 738 737 736 735 734 732 729 726 723 721 721 720 718 716 715 713 711 709 707 707 706 705 703 702 701 699 698 695 693 689 686 683 681 680 678 678 677 675 674 672
772 772 772 772 771 771 771 770 770 770 769 768 768 768 768 768 768 768 767 766 766 765 764 763 763 761 760 758 758 757 756 754 753 751 750 749 748 747 746 745 744 743 741 740 738 737 736 734 733 732 731 730 728 725 722 720 718 718 717 716 714 713 710 708 706 706 705 703 702 701 700 699 698 696 693 690 686 682 680 678 676 675 675 674 673 671
771 771 771 770 770 770 769 769 769 768 768 768 767 767 766 766 766 766 766 765 764 764 763 762 761 760 758 757 756 755 754 753 752 750 749 748 748 746 745 744 743 741 739 738 736 735 733 731 729 728 728 727 726 724 721 719 717 716 715 714 713 712 710 708 706 704 704 702 701 699 698 697 695 694 693 690 686 683 679 677 674 673 673 672 671 670
769 769 769 769 768 768 768 768 768 767 767 767 766 766 765 765 765 764 764 764 763 763 762 761 760 759 758 756 755 754 753 752 751 749 748 748 747 746 744 743 742 741 739 737 735 733 732 729 727 725 724 724 723 723 721 719 717 715 714 712 711 711 709 707 705 704 703 701 700 698 697 695 693 693 691 689 687 683 679 675 673 671 670 670 669 668